Homer, AK

3:51 AM AKDT on August 28, 2016 (GMT -0800)
Homer

Weather History for PAHO - October, 2010

Change the Weather History Date:

Wednesday, October 20, 2010

  Actual Average Record
Temperature  
Mean Temperature 38 °F -  
Max Temperature 46 °F 42 °F 54 °F (1957)
Min Temperature 32 °F 29 °F 15 °F (1965)
Degree Days  
Heating Degree Days 26    
Moisture  
Dew Point 36 °F    
Average Humidity 88    
Maximum Humidity 100    
Minimum Humidity 74    
Precipitation  
Precipitation 0.04 in - - ()
Sea Level Pressure  
Sea Level Pressure 29.61 in    
Wind  
Wind Speed 3 mph (ENE)    
Max Wind Speed 8 mph    
Max Gust Speed -    
Visibility 10 miles    
Events Rain    
Averages and records for this station are not official NWS values.
T = Trace of Precipitation, MM = Missing Value Source: NWS Daily Summary

Daily Weather History Graph

Daily Weather History Graph

Search for Another Location

Airport or City:

Trip Planner

Search our weather history database for the weather conditions in past years. The results will help you decide how hot, cold, wet, or windy it might be!

Date:

Astronomy

Oct. 20, 2010 Rise Set
Actual Time 8:57 AM AKDT 6:42 PM AKDT
Civil Twilight 8:14 AM AKDT 7:25 PM AKDT
Nautical Twilight 7:26 AM AKDT 8:13 PM AKDT
Astronomical Twilight 6:39 AM AKDT 9:00 PM AKDT
Moon 5:33 PM AKDT (10/20) 6:29 AM AKDT (10/20)
Length of Visible Light 11h 10m
Length of Day
9h 45m
Waxing Gibbous, 95% of the Moon is Illuminated
Oct 20
Waxing Gibbous
Oct 22
Full
Oct 30
Last Quarter
Nov 5
New
Nov 13
First Quarter

Hourly Weather History & Observations

Time (AKDT) Temp. Windchill Dew Point Humidity Pressure Visibility Wind Dir Wind Speed Gust Speed Precip Events Conditions
12:53 AM 37.9 °F 34.4 °F 36.0 °F 93% 29.67 in 10.0 mi ENE 4.6 mph - 0.01 in   Mostly Cloudy
1:53 AM 35.1 °F - 35.1 °F 100% 29.66 in 10.0 mi Calm Calm - N/A   Partly Cloudy
2:53 AM 35.1 °F 31.0 °F 34.0 °F 96% 29.65 in 10.0 mi NE 4.6 mph - N/A   Clear
3:53 AM 39.9 °F - 35.1 °F 83% 29.64 in 10.0 mi Calm Calm - N/A   Partly Cloudy
4:53 AM 33.1 °F - 32.0 °F 96% 29.63 in 10.0 mi Calm Calm - N/A   Partly Cloudy
5:53 AM 35.1 °F - 33.1 °F 92% 29.63 in 10.0 mi Calm Calm - N/A   Scattered Clouds
6:53 AM 32.0 °F - 30.9 °F 96% 29.63 in 10.0 mi Calm Calm - N/A   Clear
7:53 AM 32.0 °F - 30.9 °F 96% 29.62 in 10.0 mi Calm Calm - N/A   Clear
8:53 AM 35.1 °F - 32.0 °F 89% 29.62 in 10.0 mi Calm Calm - N/A   Partly Cloudy
9:53 AM 36.0 °F 31.1 °F 34.0 °F 93% 29.62 in 10.0 mi NNE 5.8 mph - N/A   Mostly Cloudy
10:53 AM 42.1 °F 40.2 °F 35.1 °F 76% 29.62 in 10.0 mi NNE 3.5 mph - N/A   Scattered Clouds
11:53 AM 43.0 °F 39.5 °F 37.0 °F 80% 29.61 in 10.0 mi ENE 5.8 mph - N/A   Clear
12:53 PM 45.0 °F 40.6 °F 39.0 °F 80% 29.61 in 10.0 mi ENE 8.1 mph - N/A   Partly Cloudy
1:53 PM 44.1 °F 40.8 °F 37.9 °F 79% 29.60 in 10.0 mi ENE 5.8 mph - N/A   Scattered Clouds
2:53 PM 45.0 °F - 37.0 °F 74% 29.60 in 10.0 mi Calm Calm - N/A   Scattered Clouds
3:53 PM 43.0 °F 41.3 °F 37.9 °F 82% 29.59 in 10.0 mi Variable 3.5 mph - 0.00 in   Overcast
4:53 PM 43.0 °F 39.5 °F 37.9 °F 82% 29.58 in 10.0 mi NNE 5.8 mph - 0.00 in   Overcast
5:53 PM 41.0 °F - 37.9 °F 89% 29.57 in 10.0 mi Calm Calm - 0.00 in   Scattered Clouds
6:53 PM 41.0 °F 39.0 °F 37.9 °F 89% 29.57 in 10.0 mi ESE 3.5 mph - 0.00 in Rain Light Rain
7:53 PM 37.9 °F 32.1 °F 37.0 °F 97% 29.57 in 10.0 mi NE 8.1 mph - 0.00 in   Mostly Cloudy
8:53 PM 41.0 °F 39.0 °F 37.9 °F 89% 29.58 in 10.0 mi ESE 3.5 mph - 0.01 in Rain Light Rain
9:53 PM 39.0 °F 35.7 °F 37.0 °F 93% 29.57 in 10.0 mi ENE 4.6 mph - 0.02 in   Overcast
10:53 PM 39.9 °F 34.5 °F 37.9 °F 93% 29.59 in 10.0 mi NE 8.1 mph - N/A   Overcast
11:53 PM 42.1 °F 37.1 °F 37.9 °F 85% 29.59 in 10.0 mi ENE 8.1 mph - N/A   Overcast